TimeCDT,TemperatureF,Dew PointF,Humidity,Sea Level PressureIn,VisibilityMPH,Wind Direction,Wind SpeedMPH,Gust SpeedMPH,PrecipitationIn,Events,Conditions,WindDirDegrees,DateUTC
12:15 AM,56.5,56.3,99,30.24,5.0,Calm,Calm,-,N/A,,Clear,0,2012-10-05 05:15:00
12:35 AM,56.3,56.1,99,30.24,5.0,Calm,Calm,-,N/A,,Clear,0,2012-10-05 05:35:00
12:55 AM,56.3,56.1,99,30.24,3.0,Calm,Calm,-,N/A,,Clear,0,2012-10-05 05:55:00
1:15 AM,55.9,55.8,99,30.24,5.0,Calm,Calm,-,N/A,,Clear,0,2012-10-05 06:15:00
1:35 AM,55.8,55.6,99,30.24,5.0,Calm,Calm,-,N/A,,Clear,0,2012-10-05 06:35:00
1:55 AM,55.6,55.4,99,30.23,5.0,Calm,Calm,-,N/A,,Clear,0,2012-10-05 06:55:00
2:15 AM,55.4,54.9,98,30.23,5.0,Calm,Calm,-,N/A,,Clear,0,2012-10-05 07:15:00
2:35 AM,55.4,55.0,99,30.23,5.0,Calm,Calm,-,N/A,,Clear,0,2012-10-05 07:35:00
3:15 AM,54.9,54.5,99,30.22,5.0,Calm,Calm,-,N/A,,Clear,0,2012-10-05 08:15:00
3:35 AM,54.9,54.5,99,30.22,5.0,Calm,Calm,-,N/A,,Clear,0,2012-10-05 08:35:00
3:55 AM,54.5,54.1,99,30.22,5.0,Calm,Calm,-,N/A,,Clear,0,2012-10-05 08:55:00
4:15 AM,54.5,54.1,99,30.22,5.0,Calm,Calm,-,N/A,,Clear,0,2012-10-05 09:15:00
4:35 AM,54.3,53.8,98,30.22,5.0,Calm,Calm,-,N/A,,Clear,0,2012-10-05 09:35:00
4:55 AM,54.3,53.8,98,30.21,5.0,Calm,Calm,-,N/A,,Clear,0,2012-10-05 09:55:00
5:15 AM,54.3,53.8,98,30.22,7.0,Calm,Calm,-,N/A,,Clear,0,2012-10-05 10:15:00
5:35 AM,54.0,53.6,99,30.22,7.0,NE,3.5,-,N/A,,Clear,40,2012-10-05 10:35:00
5:55 AM,54.0,53.4,98,30.22,7.0,Calm,Calm,-,N/A,,Clear,0,2012-10-05 10:55:00
6:15 AM,54.0,53.6,99,30.23,7.0,Calm,Calm,-,N/A,,Clear,0,2012-10-05 11:15:00
6:35 AM,53.8,53.4,99,30.22,5.0,Calm,Calm,-,N/A,,Clear,0,2012-10-05 11:35:00
6:55 AM,53.6,53.1,98,30.23,5.0,Calm,Calm,-,N/A,,Clear,0,2012-10-05 11:55:00
7:15 AM,53.8,53.2,98,30.22,5.0,Calm,Calm,-,N/A,,Clear,0,2012-10-05 12:15:00
7:35 AM,54.9,54.1,97,30.22,5.0,Calm,Calm,-,N/A,,Clear,0,2012-10-05 12:35:00
7:55 AM,57.2,55.9,96,30.22,5.0,Calm,Calm,-,N/A,,Clear,0,2012-10-05 12:55:00
8:15 AM,60.6,58.8,94,30.22,7.0,Calm,Calm,-,N/A,,Clear,0,2012-10-05 13:15:00
8:35 AM,64.2,60.1,86,30.22,10.0,Calm,Calm,-,N/A,,Clear,0,2012-10-05 13:35:00
8:55 AM,66.6,59.7,79,30.22,10.0,Calm,Calm,-,N/A,,Clear,0,2012-10-05 13:55:00
9:35 AM,70.0,59.7,70,30.22,10.0,ESE,3.5,-,N/A,,Clear,120,2012-10-05 14:35:00
9:55 AM,71.4,59.5,66,30.21,10.0,Calm,Calm,-,N/A,,Clear,0,2012-10-05 14:55:00
10:15 AM,72.9,59.5,63,30.21,10.0,SSE,3.5,-,N/A,,Clear,160,2012-10-05 15:15:00
10:35 AM,73.9,59.9,61,30.21,10.0,ESE,3.5,-,N/A,,Clear,120,2012-10-05 15:35:00
11:15 AM,75.6,58.3,55,30.19,10.0,Calm,Calm,-,N/A,,Clear,0,2012-10-05 16:15:00
11:35 AM,76.6,58.3,53,30.19,10.0,SW,5.8,-,N/A,,Scattered Clouds,230,2012-10-05 16:35:00
11:55 AM,77.4,57.4,50,30.18,10.0,Calm,Calm,-,N/A,,Clear,0,2012-10-05 16:55:00
12:15 PM,77.2,57.4,50,30.17,10.0,South,8.1,-,N/A,,Clear,190,2012-10-05 17:15:00
12:35 PM,78.1,57.7,49,30.16,10.0,SSW,4.6,-,N/A,,Clear,200,2012-10-05 17:35:00
12:55 PM,78.4,57.7,49,30.15,10.0,SSW,8.1,-,N/A,,Clear,210,2012-10-05 17:55:00
1:15 PM,78.6,57.4,48,30.14,10.0,SW,9.2,-,N/A,,Clear,220,2012-10-05 18:15:00
1:35 PM,78.8,57.9,49,30.13,10.0,South,3.5,-,N/A,,Clear,170,2012-10-05 18:35:00
1:55 PM,79.0,57.7,48,30.12,10.0,South,8.1,-,N/A,,Clear,170,2012-10-05 18:55:00
2:15 PM,79.3,57.4,47,30.11,10.0,South,6.9,-,N/A,,Clear,190,2012-10-05 19:15:00
2:35 PM,79.7,56.1,44,30.11,10.0,WSW,6.9,-,N/A,,Clear,240,2012-10-05 19:35:00
2:55 PM,79.7,55.8,44,30.11,10.0,SW,6.9,-,N/A,,Clear,220,2012-10-05 19:55:00
3:15 PM,79.5,55.9,44,30.10,10.0,SSW,8.1,-,N/A,,Clear,210,2012-10-05 20:15:00
3:35 PM,79.3,56.8,46,30.09,10.0,SW,3.5,-,N/A,,Clear,220,2012-10-05 20:35:00
3:55 PM,79.3,57.9,48,30.08,10.0,South,8.1,-,N/A,,Clear,180,2012-10-05 20:55:00
4:15 PM,79.2,57.2,47,30.07,10.0,SSW,5.8,-,N/A,,Clear,200,2012-10-05 21:15:00
4:35 PM,79.0,56.8,46,30.07,10.0,SW,5.8,-,N/A,,Clear,220,2012-10-05 21:35:00
4:55 PM,78.1,56.7,48,30.06,10.0,SSW,5.8,-,N/A,,Clear,210,2012-10-05 21:55:00
5:15 PM,77.5,56.8,49,30.06,10.0,SW,4.6,-,N/A,,Clear,220,2012-10-05 22:15:00
5:35 PM,76.6,57.2,51,30.06,10.0,Calm,Calm,-,N/A,,Clear,0,2012-10-05 22:35:00
5:55 PM,75.2,57.7,54,30.06,10.0,SSW,3.5,-,N/A,,Clear,200,2012-10-05 22:55:00
6:15 PM,72.0,59.7,65,30.06,10.0,Calm,Calm,-,N/A,,Clear,0,2012-10-05 23:15:00
6:35 PM,68.0,60.4,77,30.06,10.0,Calm,Calm,-,N/A,,Clear,0,2012-10-05 23:35:00
6:55 PM,64.9,60.4,85,30.06,10.0,Calm,Calm,-,N/A,,Clear,0,2012-10-05 23:55:00
7:15 PM,63.3,60.3,90,30.05,10.0,Calm,Calm,-,N/A,,Clear,0,2012-10-06 00:15:00
7:35 PM,62.4,59.9,91,30.05,10.0,Calm,Calm,-,N/A,,Clear,0,2012-10-06 00:35:00
7:55 PM,61.9,60.1,94,30.05,10.0,Calm,Calm,-,N/A,,Clear,0,2012-10-06 00:55:00
8:15 PM,61.0,59.5,95,30.05,10.0,Calm,Calm,-,N/A,,Clear,0,2012-10-06 01:15:00
8:35 PM,60.3,59.2,96,30.06,7.0,Calm,Calm,-,N/A,,Clear,0,2012-10-06 01:35:00
8:55 PM,59.5,58.5,96,30.06,7.0,Calm,Calm,-,N/A,,Clear,0,2012-10-06 01:55:00
9:15 PM,59.2,58.3,97,30.07,10.0,Calm,Calm,-,N/A,,Clear,0,2012-10-06 02:15:00
9:35 PM,59.0,58.1,97,30.08,7.0,Calm,Calm,-,N/A,,Clear,0,2012-10-06 02:35:00
9:55 PM,58.6,57.9,97,30.07,7.0,Calm,Calm,-,N/A,,Clear,0,2012-10-06 02:55:00
10:15 PM,59.0,58.1,97,30.08,7.0,Calm,Calm,-,N/A,,Clear,0,2012-10-06 03:15:00
10:35 PM,58.5,57.9,98,30.08,10.0,Calm,Calm,-,N/A,,Clear,0,2012-10-06 03:35:00
10:55 PM,58.3,57.6,97,30.09,7.0,Calm,Calm,-,N/A,,Clear,0,2012-10-06 03:55:00
11:35 PM,58.1,57.4,97,30.08,7.0,Calm,Calm,-,N/A,,Clear,0,2012-10-06 04:35:00
11:55 PM,57.7,57.2,98,30.07,7.0,Calm,Calm,-,N/A,,Clear,0,2012-10-06 04:55:00